SCP
0 0 0 0 0 0 0 0 0 0 0 0 0 0 0 0 0 0 0 0 0 0 0 0 0 0 0 0 0 0 0 0 0 0 0 0 0 0 0 0 0 0 0 0 0 0 0 0 0 0 0 0 0 0
0 0 0 0 0 0 0 0 0 0 0 0 0 0 0 0 0 0 0 0 0 0 0 0 0 0 0 0 0 0 0 0 0 0 0 0 0 0 0 0 -0 0 0 0 0 0 0 0 0 0 0 0 0 0
0 0 0 0 0 0 0 0 0 0 0 0 0 0 0 0 0 0 0 0 0 0 0 0 0 0 0 0 0 0 0 0 0 0 0 0 0 0 0 0 0 -0 -0 -0 -0 -0 0 0 -0 -0 -0 -0 -0 -0
0 0 0 0 0 0 0 0 0 0 0 0 0 0 0 0 0 0 0 0 0 0 0 0 0 0 0 0 0 0 0 0 0 0 0 0 0 0 0 0 0 0 -0 -0 -0 -0 -0 -0 -0 -0 -0 -0 -0 -0
0 0 0 0 0 0 0 0 0 0 0 0 0 0 0 0 0 0 0 0 0 0 0 0 0 0 0 0 0 0 0 0 0 0 0 0 0 0 0 0 0 0 0 0 -0 -0 -0 -0 -0 -0 -0 -0 -0 -0
0 0 0 0 0 0 0 0 0 0 0 0 0 0 0 0 0 0 0 0 0 0 0 0 0 0 0 0 0 0 0 0 0 0 0 0 0 0 0 0 0 0 0 0 0 0 0 -0 -0 -0 -0 -0 -0 0
0 0 0 0 0 0 0 0 0 -0 0 0 0 0 0 0 0 0 0 0 0 0 0 0 0 0 0 0 0 0 0 0 0 0 0 0 0 0 0 0 0 0 0 0 0 0 0 0 -0 0 0 0 0 0
0 0 0 0 0 0 0 0 -0 0 0 0 0 0 0 0 0 0 0 0 0 0 0 0 0 0 0 0 0 0 0 0 0 0 0 0 0 0 0 0 0 0 0 0 0 0 -0 -0 -0 0 -0 -0 0 0
0 0 0 0 0 0 -0 -0 0 0 0 0 0 0 0 0 0 0 0 0 0 0 0 0 0 0 0 0 0 0 0 0 0 0 0 0 0 0 0 0 0 0 0 0 0 0 -0 -0 -0 -0 -0 -0 0 0
0 0 0 0 0 0 -0 0 0 0 0 0 0 0 0 0 0 0 0 0 0 0 0 0 0 0 0 0 0 0 0 0 0 0 0 0 0 0 0 0 0 0 0 0 0 -0 -0 -0 0 0 0 -0 0 0
0 0 0 0 0 0 0 0 0 0 0 0 0 0 0 0 0 0 0 0 0 0 0 0 0 0 0 0 0 0 0 0 0 0 0 0 0 0 0 0 0 0 0 0 0 0 0 0 0 -0 -0 -0 -0 -0
0 0 0 0 0 0 0 0 0 0 0 0 0 0 0 0 0 0 0 0 0 0 0 0 0 0 0 0 0 0 0 0 0 0 0 0 0 0 0 0 0 0 0 0 0 0 0 -0 -0 -0 -0 -0 -0 -0
0 0 0 0 0 -0 -0 -0 0 0 0 0 0 0 0 0 0 0 0 0 0 0 0 0 0 0 0 0 0 0 0 0 0 0 0 0 0 0 0 0 0 0 0 0 0 0 -0 -0 -0 -0 -0 -0 -0 -0
0 -0 -0 -0 -0 -0 -0 0 0 0 0 0 0 0 0 0 0 0 0 0 0 0 0 0 0 0 0 0 0 0 0 0 0 0 0 0 0 0 0 0 0 0 0 -0 -0 -0 -0 -0 -0 -0 -0 -0 -0 -0
0 -0 0 0 -0 -0 0 0 0 0 0 0 0 0 0 0 0 0 0 0 0 0 0 0 0 0 0 0 0 0 0 0 0 0 0 0 0 0 0 0 0 -0 -0 -0 -0 -0 -0 -0 -0 -0 -0 -0 -0 -0
0 0 0 0 -0 0 0 0 0 0 0 0 0 0 0 0 0 0 0 0 0 0 0 0 0 0 0 0 0 0 0 0 0 0 0 0 0 0 0 -0 -0 -0 -0 -0 -0 -0 -0 -0 -0 -0 -0 -0 -0 -0
0 0 0 0 0 0 0 0 0 0 0 0 0 0 0 0 0 0 0 0 0 0 0 0 0 0 0 0 0 0 0 0 0 0 0 0 0 -0 -0 -0 -0 -0 -0 -0 -0 -0 -0 -0 -0 -0 -0 0 0 -0
0 0 0 0 0 0 0 0 0 0 0 0 0 0 0 0 0 0 0 0 0 0 0 0 0 0 0 0 0 0 0 0 0 0 0 -0 -0 -0 -0 -0 -0 -0 0 0 0 0 -0 -0 -0 -0 -0 -0 0 0
0 0 0 0 0 0 0 0 0 0 0 0 0 0 0 0 0 0 0 0 0 0 0 0 0 0 0 0 0 0 0 0 0 -0 -0 -0 -0 -0 -0 -0 0 0 0 0 -0 -0 -0 -0 -0 0 -0 0 -0 -0
0 0 0 0 0 0 0 0 0 0 0 0 0 0 0 0 0 0 0 0 0 0 0 0 0 0 0 0 0 0 0 0 -0 -0 -0 -0 -0 -0 0 0 0 -0 0 0 0 0 -0 0 0 0 0 0 -0 -0
0 0 0 0 0 0 0 0 0 0 0 0 0 0 0 0 0 0 0 0 0 0 0 0 0 0 0 0 0 0 0 -0 -0 -0 -0 0 -0 -0 -0 -0 0 0 0 0 0 0 0 0 0 0 0 0 0 0
0 0 0 0 0 0 0 0 0 0 0 0 0 0 0 0 0 0 0 0 0 0 0 0 0 0 0 0 0 -0 -0 -0 -0 0 -0 -0 -0 -0 0 0 0 0 0 0 0 -0 -0 -0 -0 -0 -0 -0 -0 -0
0 0 0 0 0 0 0 0 0 0 0 0 0 0 0 0 0 0 0 0 0 0 0 0 -0 -0 -0 -0 -0 -0 0 0 0 0 0 -0 0 0 0 0 0 0 0 0 0 -0 -0 -0 -0 -0 -0 0 0 0
0 0 0 0 0 0 0 0 0 0 0 0 0 0 0 0 0 0 0 0 0 0 0 -0 -0 -0 -0 0 0 0 0 0 0 0 0 0 0 0 0 0 0 0 0 0 0 -0 -0 -0 -0 -0 0 0 0 0
0 0 0 0 0 0 0 0 0 0 0 0 0 0 0 0 0 0 0 0 -0 -0 -0 -0 -0 0 0 -0 0 0 0 0 0 0 0 0 0 0 0 0 0 0 -0 -0 -0 -0 -0 0 -0 0 0 0 0 0
-0 0 0 0 0 0 0 0 0 0 0 0 0 0 0 0 0 0 -0 -0 -0 -0 -0 -0 0 0 0 0 0 0 0 0 0 0 0 0 0 0 0 0 0 0 0 0 0 0 0 0 0 0 0 0 0 0
-0 0 0 0 0 0 0 0 0 0 0 0 0 0 0 0 -0 -0 -0 -0 0 0 0 0 0 0 0 0 0 0 0 0 0 0 0 -0 -0 -0 -0 -0 0 0 0 0 0 0 0 0 0 0 0 0 0 0
0 0 0 0 0 0 0 0 0 0 0 0 0 0 -0 -0 -0 -0 -0 -0 0 0 0 0 0 0 0 0 0 0 0 0 0 -0 -0 -0 -0 -0 -0 -0 -0 -0 0 0 0 0 0 0 0 0 0 0 0 0
-0 0 0 0 0 0 0 0 0 0 0 0 0 -0 -0 -0 0 0 0 0 0 0 0 0 0 0 0 0 0 -0 -0 -0 -0 -0 -0 -0 -0 -0 0 0 0 0 0 0 0 0 0 0 0 0 0 0 0 0
0 0 0 0 0 -0 -0 0 0 0 0 0 0 0 -0 -0 -0 0 0 0 0 0 0 0 0 0 -0 -0 0 -0 -0 0 0 0 0 0 0 0 0 0 0 0 0 0 0 0 -0 0 0 0 0 0 0 0
0 -0 -0 0 -0 -0 0 0 0 0 0 0 0 0 0 0 0 -0 0 0 0 0 0 0 0 0 0 0 0 0 0 0 0 0 0 0 0 0 0 0 0 0 0 0 0 0 0 0 0 0 0 0 0 0
-0 -0 0 -0 -0 -0 -0 -0 -0 -0 -0 -0 -0 -0 -0 -0 -0 0 0 0 0 0 0 0 0 0 0 0 0 0 0 0 0 0 0 0 0 0 0 0 0 0 0 0 0 0 0 0 0 0 0 0 0 0
0 0 0 0 0 0 -0 -0 -0 0 -0 -0 -0 -0 -0 -0 -0 -0 0 0 0 0 0 0 0 0 0 0 0 0 0 0 0 0 0 0 0 0 0 0 0 0 0 0 0 0 0 0 0 0 0 0 0 0
Wind_Speed_500mb
53 55 62 63 57 55 53 50 47 47 49 48 46 45 42 40 46 44 55 53 55 34 58 42 48 41 36 34 17 14 21 11 9 17 18 27 25 12 15 19 26 18 13 14 22 37 54 33 14 24 25 53 60 59
60 56 57 59 59 55 56 54 53 51 48 47 47 51 48 44 46 45 59 53 54 57 39 18 32 46 45 47 48 32 18 15 11 7 11 9 16 13 11 12 2 12 3 8 11 10 22 30 29 58 44 51 48 48
56 59 59 55 63 64 59 56 54 55 52 53 54 52 52 51 49 47 55 55 48 55 54 64 55 77 73 68 67 20 43 34 23 42 8 6 15 6 8 8 27 19 29 13 28 9 49 92 87 46 49 54 56 54
57 57 56 57 59 61 66 66 61 60 58 58 57 48 47 49 52 50 54 56 53 33 10 20 37 44 52 41 42 49 65 62 51 43 8 5 3 14 13 14 18 21 36 27 45 41 52 47 55 75 83 77 65 69
56 57 56 56 55 58 57 62 65 62 60 60 53 49 51 50 53 56 59 61 60 55 11 11 23 37 39 38 52 59 64 64 46 18 7 9 8 11 11 20 23 24 29 27 34 45 48 58 80 73 70 78 76 60
57 58 62 59 57 58 57 55 56 58 60 58 52 49 51 51 51 53 51 68 66 69 28 10 17 38 47 56 68 62 61 64 50 13 8 19 49 23 8 16 25 49 62 63 40 49 57 64 67 71 78 84 70 84
59 60 61 62 59 57 58 56 59 61 59 56 54 54 53 55 55 56 20 8 13 39 25 8 7 22 57 58 53 50 53 45 43 36 19 30 37 41 22 29 42 66 54 51 32 44 36 38 42 75 71 85 88 98
57 58 58 62 61 58 58 60 58 54 52 51 52 53 56 59 58 65 73 64 43 27 18 6 5 2 10 13 12 41 27 36 28 25 20 11 23 19 18 40 49 23 34 41 24 29 35 61 59 82 78 68 82 95
60 58 58 60 56 56 56 53 51 47 43 45 48 50 56 54 47 56 51 51 58 47 6 7 9 8 15 16 13 8 18 5 23 9 15 9 7 10 22 18 10 8 12 36 60 57 53 53 69 87 73 72 64 84
55 55 58 58 59 56 56 51 47 46 39 42 39 22 16 27 36 35 15 13 19 9 11 3 9 3 10 16 7 3 12 6 5 9 13 7 20 58 29 14 8 14 18 26 41 49 72 84 71 86 89 72 64 77
55 57 57 56 57 57 54 49 45 41 35 25 13 18 26 18 17 13 10 10 8 2 10 11 25 11 19 6 8 14 5 5 6 10 10 7 6 8 11 5 9 20 30 38 43 56 56 63 79 89 105 83 79 76
56 57 58 57 56 58 53 47 43 38 30 21 16 13 27 18 11 8 7 4 5 10 9 7 6 10 6 11 5 9 7 2 10 5 7 6 10 16 9 21 34 40 52 59 62 71 72 65 71 75 86 93 87 84
52 52 52 52 54 50 48 42 38 36 31 27 13 11 10 10 10 12 13 5 6 7 11 10 3 9 9 14 5 6 10 10 3 3 9 9 13 18 39 51 60 64 66 72 78 76 77 77 73 71 83 84 85 82
48 48 51 48 45 44 40 37 34 32 21 14 9 12 9 6 6 7 5 6 4 8 14 10 3 6 13 5 7 5 9 5 6 6 13 4 20 45 55 63 70 78 77 80 81 78 75 75 78 78 72 76 77 74
44 43 41 41 43 39 33 35 33 33 17 7 7 6 5 4 10 10 11 11 10 8 4 2 5 6 4 5 5 3 4 10 12 10 4 20 42 55 62 66 70 73 77 77 72 76 78 75 76 77 73 66 56 60
30 30 37 33 30 38 38 35 25 24 12 9 7 1 2 5 4 8 12 9 8 3 2 1 3 5 11 7 7 14 6 12 6 3 24 40 49 61 65 70 71 71 70 70 76 73 71 71 71 69 64 49 47 43
21 27 25 34 36 34 30 24 14 9 6 5 3 9 12 15 10 5 4 1 5 4 2 3 9 13 5 7 7 6 5 2 12 32 34 42 59 67 67 69 69 68 67 68 65 64 66 63 55 52 51 44 37 32
24 22 43 48 42 38 26 13 9 8 7 8 3 5 10 12 11 7 5 7 5 2 2 2 5 6 7 7 3 3 9 31 31 36 47 57 57 55 57 62 62 63 60 56 53 55 53 49 46 46 41 34 31 26
13 17 20 22 24 17 9 9 6 7 8 10 14 12 11 14 13 8 4 3 5 4 1 1 5 3 0 2 2 21 29 30 43 47 52 50 46 51 54 54 56 52 45 43 45 40 41 33 35 34 32 26 28 30
41 34 24 26 27 8 8 9 7 13 5 7 11 11 11 9 9 14 13 9 7 4 5 3 2 2 2 17 27 33 37 38 39 42 50 53 49 51 49 52 47 38 35 40 34 33 36 37 35 31 30 29 33 34
24 23 23 28 11 10 12 9 12 10 13 12 16 6 9 8 6 6 7 10 8 6 2 1 3 14 21 24 17 22 29 30 36 35 43 51 48 42 45 42 36 33 37 42 40 39 37 36 33 34 35 35 34 34
16 22 19 12 8 9 13 12 13 11 9 14 8 6 8 3 3 3 6 10 6 2 2 7 17 22 19 17 20 20 24 23 20 22 22 22 33 40 45 44 43 42 43 45 41 39 38 36 35 37 39 41 41 42
22 14 10 9 10 12 6 9 7 7 6 5 9 5 3 3 3 6 4 3 2 4 9 11 12 9 12 12 12 15 16 15 19 20 19 19 21 31 43 46 47 48 50 51 46 46 45 42 43 45 46 48 50 51
19 11 14 13 16 5 5 9 7 7 6 3 4 4 3 2 3 2 2 3 3 4 3 7 9 10 10 15 19 23 22 23 25 27 25 26 30 35 38 44 48 49 49 50 52 52 52 51 49 49 50 49 49 49
9 20 13 10 13 8 8 6 8 6 4 4 4 3 1 1 2 0 3 4 5 3 2 5 8 10 11 13 15 17 19 20 25 28 29 29 27 27 31 35 41 45 46 49 53 52 50 48 48 46 46 46 44 42
15 14 9 8 7 7 5 5 5 4 4 3 4 2 2 1 2 6 5 13 11 10 9 9 8 9 10 9 9 10 11 11 12 15 22 28 31 31 31 34 35 36 37 38 37 38 39 39 39 38 37 36 34 33
10 7 11 12 5 5 7 8 3 2 4 3 3 4 2 3 7 5 8 16 15 15 14 12 11 9 9 10 12 14 16 18 15 14 14 17 19 27 29 31 33 32 32 31 29 29 29 27 26 26 27 26 26 26
8 9 6 9 9 7 7 3 3 2 2 1 2 4 4 7 6 6 11 18 18 17 14 9 4 2 4 9 12 14 12 16 15 14 13 11 13 18 23 26 28 28 28 28 28 26 25 23 22 21 19 18 16 15
9 6 3 6 4 5 2 5 5 3 2 4 4 4 5 7 7 7 13 21 22 20 16 11 6 3 6 12 15 15 16 13 15 16 15 15 18 21 24 26 27 28 27 26 27 28 28 28 26 23 22 21 19 18
8 8 4 3 4 2 4 4 4 4 7 9 7 8 10 10 7 11 19 25 26 22 17 15 12 11 10 13 11 12 15 13 16 20 23 23 23 22 24 26 28 29 30 31 30 28 27 26 26 26 25 25 25 24
9 4 2 1 4 4 3 9 12 12 10 9 15 11 10 11 9 14 22 23 25 27 26 23 20 18 17 15 16 17 15 17 21 23 24 24 24 26 28 30 33 36 38 39 39 38 37 35 34 33 31 30 30 31
6 4 4 2 4 3 5 9 4 4 5 5 5 6 6 7 8 5 6 21 33 35 28 26 26 20 17 24 24 24 25 27 29 31 33 35 35 35 37 40 41 44 47 48 46 46 45 44 41 39 38 37 35 35
3 2 2 4 3 3 8 14 4 7 5 4 3 4 4 5 9 4 4 4 7 10 13 19 23 24 26 27 26 26 29 31 32 33 34 38 42 45 49 51 51 51 52 52 49 46 44 42 41 40 40 41 41 41
Wind_Direction_500mb
280 280 278 271 273 272 270 269 273 273 276 281 277 268 269 273 272 268 266 260 251 251 262 245 246 261 263 262 275 316 338 260 273 255 267 278 283 318 311 296 284 264 264 245 251 267 267 7 303 265 335 5 358 353
280 280 284 270 271 272 271 268 267 271 275 279 275 272 266 265 266 269 267 265 263 248 252 240 244 246 243 254 265 266 250 298 251 292 311 334 311 305 301 281 337 273 20 301 304 332 320 338 323 315 306 344 336 329
280 282 276 279 270 272 272 271 270 271 273 276 272 269 267 265 264 266 266 268 263 254 254 252 252 266 260 262 252 248 266 259 250 257 270 277 265 10 307 304 317 303 299 314 322 346 315 315 320 354 347 337 326 322
282 280 276 275 271 271 265 269 270 271 272 272 267 269 272 270 268 260 264 265 256 254 262 258 256 240 257 273 239 240 245 255 263 272 249 235 211 227 260 284 286 288 309 296 285 288 304 305 319 320 322 319 329 322
280 277 276 273 272 267 265 265 267 267 270 269 265 268 271 272 276 272 262 262 255 240 280 286 263 250 259 262 247 247 244 244 247 254 233 247 243 256 247 266 268 264 269 283 287 302 303 308 316 321 319 328 325 323
276 279 277 275 274 275 271 269 270 269 268 264 262 266 270 273 272 274 265 257 252 245 251 253 266 255 256 247 245 237 234 234 233 224 233 229 243 247 248 250 261 269 273 279 298 316 308 307 308 310 319 313 311 312
271 275 275 276 274 271 272 271 270 268 265 262 264 266 269 271 265 248 243 200 235 227 227 239 231 247 244 246 237 239 239 235 231 236 228 244 250 255 267 270 272 274 289 297 330 329 322 323 314 313 316 311 314 311
270 276 274 271 272 271 270 271 270 267 260 262 267 270 273 271 266 257 249 248 249 240 260 274 253 166 221 189 212 224 217 222 220 228 232 233 253 253 261 262 278 309 308 305 311 322 295 302 305 305 312 315 315 312
266 269 270 270 273 272 269 269 268 261 260 269 269 277 278 268 251 246 255 241 232 223 239 214 179 239 182 214 198 195 228 230 233 213 238 236 232 234 247 287 276 313 317 304 311 314 322 310 309 312 312 315 312 307
267 269 271 271 271 271 269 265 261 257 264 270 275 275 241 242 236 196 171 195 208 247 232 193 121 211 198 199 208 178 207 212 216 235 240 193 246 255 274 238 249 313 325 324 327 325 321 314 311 310 308 308 305 302
270 270 270 271 270 268 263 258 253 256 264 263 245 237 238 193 171 156 174 195 167 267 231 231 209 226 239 177 206 203 204 219 193 244 165 243 262 232 132 95 316 318 315 313 305 300 299 294 298 305 305 305 305 302
270 268 270 268 266 262 254 248 244 245 234 231 249 221 168 181 181 144 184 95 189 214 208 174 208 201 225 198 134 213 197 202 236 200 104 261 239 92 48 338 327 323 322 321 322 316 312 301 300 298 297 301 305 304
268 267 268 265 262 254 247 239 239 236 223 231 230 207 205 197 190 186 165 194 186 189 199 200 233 182 192 203 209 220 222 227 69 118 213 217 81 23 346 339 331 330 327 323 323 318 317 313 308 302 301 304 307 305
270 268 264 261 254 246 234 231 219 201 201 201 227 209 196 166 224 194 185 146 99 115 143 161 194 185 219 198 239 223 241 78 224 237 229 69 11 341 338 335 331 328 328 325 321 322 315 313 311 310 307 311 312 312
271 260 256 254 259 225 216 199 196 199 195 229 162 223 220 87 64 48 77 108 68 86 91 169 253 221 232 259 212 277 258 237 210 228 48 348 333 332 329 329 327 324 325 321 319 316 316 316 313 312 319 320 322 316
269 253 250 253 214 185 185 197 178 182 193 200 207 188 53 52 108 73 39 74 32 67 113 133 288 249 228 197 182 219 205 223 266 338 321 325 323 324 322 325 325 325 321 316 317 320 318 316 315 315 324 330 333 332
259 237 268 191 181 160 158 155 149 165 185 147 105 90 84 75 67 88 86 89 358 60 223 259 215 223 325 244 224 39 230 349 330 319 320 318 319 322 326 326 326 326 320 321 323 324 322 325 326 328 339 348 347 346
229 265 185 162 140 153 149 153 161 145 100 50 89 55 91 99 110 88 67 15 76 108 345 247 323 236 238 234 297 338 343 320 313 313 316 322 327 330 328 327 330 324 324 327 332 328 332 334 338 345 347 356 0 15
215 177 114 139 175 143 117 151 156 99 83 100 108 103 92 90 77 84 105 83 113 145 228 328 253 235 295 43 298 325 321 318 315 317 317 329 334 335 336 337 329 329 332 340 339 344 346 354 356 357 3 14 22 29
126 132 152 156 161 118 111 74 88 94 99 117 112 104 100 95 105 70 62 80 92 75 56 51 113 123 283 302 310 306 310 318 315 317 319 336 346 344 347 338 338 344 353 357 3 4 15 20 22 22 29 43 53 52
141 137 151 174 141 80 90 85 67 88 114 94 116 89 96 97 72 58 38 54 64 37 87 143 245 308 306 311 320 322 319 318 311 309 309 316 343 353 348 357 9 16 19 9 16 25 29 30 32 40 49 56 63 72
135 139 129 128 88 72 78 66 87 104 86 126 109 95 102 70 88 59 69 56 68 87 314 310 321 323 332 347 338 327 322 326 335 332 332 344 358 4 9 18 25 31 35 27 33 36 40 46 51 59 65 69 74 78
135 127 85 73 85 55 24 86 82 40 99 127 146 85 50 80 76 86 78 81 144 327 326 337 350 11 9 13 13 8 9 22 21 20 25 32 38 44 40 38 38 40 45 47 48 52 55 60 66 70 74 78 81 83
111 67 42 45 41 60 42 38 52 68 60 70 84 97 39 75 143 58 158 218 223 316 9 30 53 69 66 57 50 47 50 60 59 54 53 54 54 52 50 46 47 48 50 52 54 55 57 59 62 65 68 71 74 77
100 13 25 26 26 40 49 31 3 52 82 10 104 129 95 316 142 126 225 216 208 224 130 110 89 77 71 68 64 54 47 48 52 47 46 48 48 53 51 44 42 41 43 48 48 48 50 52 54 57 61 65 68 70
72 12 52 9 17 66 2 76 44 30 4 83 55 27 306 259 199 241 223 186 186 183 161 142 125 101 69 56 42 29 14 7 10 20 25 27 26 25 23 22 26 31 32 32 34 40 42 43 45 48 52 55 58 60
72 3 35 40 67 85 72 51 29 23 62 73 11 323 224 232 242 236 188 184 179 167 155 141 124 103 76 51 34 23 15 5 350 334 330 345 350 7 12 14 13 11 15 16 14 17 21 24 28 31 34 34 38 41
85 39 88 355 54 54 120 67 70 151 231 355 326 229 230 205 241 179 196 184 178 174 168 165 160 83 23 7 357 350 345 355 352 347 351 357 6 7 8 9 6 4 1 359 2 4 6 6 4 3 4 4 4 3
50 28 53 33 57 60 111 151 205 193 216 199 168 263 264 254 257 226 203 190 192 195 197 200 208 263 337 341 340 343 348 346 359 6 8 3 5 357 1 358 356 357 357 358 353 351 350 353 355 355 354 352 350 348
14 11 75 57 99 239 207 195 210 228 233 228 255 273 270 268 274 221 207 206 210 213 219 231 242 262 295 324 338 346 346 345 346 347 345 347 347 351 351 351 353 354 354 352 350 348 343 338 335 334 334 335 337 339
349 344 37 155 199 184 244 281 277 249 241 244 239 247 270 297 281 235 226 222 223 229 236 242 249 260 276 294 307 321 333 334 338 332 327 325 325 326 327 329 330 331 333 335 336 336 334 332 330 328 326 325 323 322
6 46 121 27 291 283 313 341 271 261 240 248 245 253 282 287 276 245 241 228 232 239 245 248 254 264 276 278 288 292 300 308 313 314 313 313 315 318 317 317 318 318 318 320 322 323 323 323 322 319 318 318 317 315
329 357 10 337 355 4 346 342 5 336 248 264 253 276 267 268 250 258 280 286 275 260 250 249 254 260 268 281 290 293 297 302 306 308 311 311 312 313 310 309 308 307 307 308 310 312 313 314 314 315 314 312 310 309
Wind_Speed_850mb
53 55 62 63 57 55 53 50 47 47 49 48 46 45 42 40 46 44 55 53 55 34 58 42 48 41 36 34 17 14 21 11 9 17 18 27 25 12 15 19 26 18 13 14 22 37 54 33 14 24 25 53 60 59
60 56 57 59 59 55 56 54 53 51 48 47 47 51 48 44 46 45 59 53 54 57 39 18 32 46 45 47 48 32 18 15 11 7 11 9 16 13 11 12 2 12 3 8 11 10 22 30 29 58 44 51 48 48
56 59 59 55 63 64 59 56 54 55 52 53 54 52 52 51 49 47 55 55 48 55 54 64 55 77 73 68 67 20 43 34 23 42 8 6 15 6 8 8 27 19 29 13 28 9 49 92 87 46 49 54 56 54
57 57 56 57 59 61 66 66 61 60 58 58 57 48 47 49 52 50 54 56 53 33 10 20 37 44 52 41 42 49 65 62 51 43 8 5 3 14 13 14 18 21 36 27 45 41 52 47 55 75 83 77 65 69
56 57 56 56 55 58 57 62 65 62 60 60 53 49 51 50 53 56 59 61 60 55 11 11 23 37 39 38 52 59 64 64 46 18 7 9 8 11 11 20 23 24 29 27 34 45 48 58 80 73 70 78 76 60
57 58 62 59 57 58 57 55 56 58 60 58 52 49 51 51 51 53 51 68 66 69 28 10 17 38 47 56 68 62 61 64 50 13 8 19 49 23 8 16 25 49 62 63 40 49 57 64 67 71 78 84 70 84
59 60 61 62 59 57 58 56 59 61 59 56 54 54 53 55 55 56 20 8 13 39 25 8 7 22 57 58 53 50 53 45 43 36 19 30 37 41 22 29 42 66 54 51 32 44 36 38 42 75 71 85 88 98
57 58 58 62 61 58 58 60 58 54 52 51 52 53 56 59 58 65 73 64 43 27 18 6 5 2 10 13 12 41 27 36 28 25 20 11 23 19 18 40 49 23 34 41 24 29 35 61 59 82 78 68 82 95
60 58 58 60 56 56 56 53 51 47 43 45 48 50 56 54 47 56 51 51 58 47 6 7 9 8 15 16 13 8 18 5 23 9 15 9 7 10 22 18 10 8 12 36 60 57 53 53 69 87 73 72 64 84
55 55 58 58 59 56 56 51 47 46 39 42 39 22 16 27 36 35 15 13 19 9 11 3 9 3 10 16 7 3 12 6 5 9 13 7 20 58 29 14 8 14 18 26 41 49 72 84 71 86 89 72 64 77
55 57 57 56 57 57 54 49 45 41 35 25 13 18 26 18 17 13 10 10 8 2 10 11 25 11 19 6 8 14 5 5 6 10 10 7 6 8 11 5 9 20 30 38 43 56 56 63 79 89 105 83 79 76
56 57 58 57 56 58 53 47 43 38 30 21 16 13 27 18 11 8 7 4 5 10 9 7 6 10 6 11 5 9 7 2 10 5 7 6 10 16 9 21 34 40 52 59 62 71 72 65 71 75 86 93 87 84
52 52 52 52 54 50 48 42 38 36 31 27 13 11 10 10 10 12 13 5 6 7 11 10 3 9 9 14 5 6 10 10 3 3 9 9 13 18 39 51 60 64 66 72 78 76 77 77 73 71 83 84 85 82
48 48 51 48 45 44 40 37 34 32 21 14 9 12 9 6 6 7 5 6 4 8 14 10 3 6 13 5 7 5 9 5 6 6 13 4 20 45 55 63 70 78 77 80 81 78 75 75 78 78 72 76 77 74
44 43 41 41 43 39 33 35 33 33 17 7 7 6 5 4 10 10 11 11 10 8 4 2 5 6 4 5 5 3 4 10 12 10 4 20 42 55 62 66 70 73 77 77 72 76 78 75 76 77 73 66 56 60
30 30 37 33 30 38 38 35 25 24 12 9 7 1 2 5 4 8 12 9 8 3 2 1 3 5 11 7 7 14 6 12 6 3 24 40 49 61 65 70 71 71 70 70 76 73 71 71 71 69 64 49 47 43
21 27 25 34 36 34 30 24 14 9 6 5 3 9 12 15 10 5 4 1 5 4 2 3 9 13 5 7 7 6 5 2 12 32 34 42 59 67 67 69 69 68 67 68 65 64 66 63 55 52 51 44 37 32
24 22 43 48 42 38 26 13 9 8 7 8 3 5 10 12 11 7 5 7 5 2 2 2 5 6 7 7 3 3 9 31 31 36 47 57 57 55 57 62 62 63 60 56 53 55 53 49 46 46 41 34 31 26
13 17 20 22 24 17 9 9 6 7 8 10 14 12 11 14 13 8 4 3 5 4 1 1 5 3 0 2 2 21 29 30 43 47 52 50 46 51 54 54 56 52 45 43 45 40 41 33 35 34 32 26 28 30
41 34 24 26 27 8 8 9 7 13 5 7 11 11 11 9 9 14 13 9 7 4 5 3 2 2 2 17 27 33 37 38 39 42 50 53 49 51 49 52 47 38 35 40 34 33 36 37 35 31 30 29 33 34
24 23 23 28 11 10 12 9 12 10 13 12 16 6 9 8 6 6 7 10 8 6 2 1 3 14 21 24 17 22 29 30 36 35 43 51 48 42 45 42 36 33 37 42 40 39 37 36 33 34 35 35 34 34
16 22 19 12 8 9 13 12 13 11 9 14 8 6 8 3 3 3 6 10 6 2 2 7 17 22 19 17 20 20 24 23 20 22 22 22 33 40 45 44 43 42 43 45 41 39 38 36 35 37 39 41 41 42
22 14 10 9 10 12 6 9 7 7 6 5 9 5 3 3 3 6 4 3 2 4 9 11 12 9 12 12 12 15 16 15 19 20 19 19 21 31 43 46 47 48 50 51 46 46 45 42 43 45 46 48 50 51
19 11 14 13 16 5 5 9 7 7 6 3 4 4 3 2 3 2 2 3 3 4 3 7 9 10 10 15 19 23 22 23 25 27 25 26 30 35 38 44 48 49 49 50 52 52 52 51 49 49 50 49 49 49
9 20 13 10 13 8 8 6 8 6 4 4 4 3 1 1 2 0 3 4 5 3 2 5 8 10 11 13 15 17 19 20 25 28 29 29 27 27 31 35 41 45 46 49 53 52 50 48 48 46 46 46 44 42
15 14 9 8 7 7 5 5 5 4 4 3 4 2 2 1 2 6 5 13 11 10 9 9 8 9 10 9 9 10 11 11 12 15 22 28 31 31 31 34 35 36 37 38 37 38 39 39 39 38 37 36 34 33
10 7 11 12 5 5 7 8 3 2 4 3 3 4 2 3 7 5 8 16 15 15 14 12 11 9 9 10 12 14 16 18 15 14 14 17 19 27 29 31 33 32 32 31 29 29 29 27 26 26 27 26 26 26
8 9 6 9 9 7 7 3 3 2 2 1 2 4 4 7 6 6 11 18 18 17 14 9 4 2 4 9 12 14 12 16 15 14 13 11 13 18 23 26 28 28 28 28 28 26 25 23 22 21 19 18 16 15
9 6 3 6 4 5 2 5 5 3 2 4 4 4 5 7 7 7 13 21 22 20 16 11 6 3 6 12 15 15 16 13 15 16 15 15 18 21 24 26 27 28 27 26 27 28 28 28 26 23 22 21 19 18
8 8 4 3 4 2 4 4 4 4 7 9 7 8 10 10 7 11 19 25 26 22 17 15 12 11 10 13 11 12 15 13 16 20 23 23 23 22 24 26 28 29 30 31 30 28 27 26 26 26 25 25 25 24
9 4 2 1 4 4 3 9 12 12 10 9 15 11 10 11 9 14 22 23 25 27 26 23 20 18 17 15 16 17 15 17 21 23 24 24 24 26 28 30 33 36 38 39 39 38 37 35 34 33 31 30 30 31
6 4 4 2 4 3 5 9 4 4 5 5 5 6 6 7 8 5 6 21 33 35 28 26 26 20 17 24 24 24 25 27 29 31 33 35 35 35 37 40 41 44 47 48 46 46 45 44 41 39 38 37 35 35
3 2 2 4 3 3 8 14 4 7 5 4 3 4 4 5 9 4 4 4 7 10 13 19 23 24 26 27 26 26 29 31 32 33 34 38 42 45 49 51 51 51 52 52 49 46 44 42 41 40 40 41 41 41
Wind_Direction_850mb
280 280 278 271 273 272 270 269 273 273 276 281 277 268 269 273 272 268 266 260 251 251 262 245 246 261 263 262 275 316 338 260 273 255 267 278 283 318 311 296 284 264 264 245 251 267 267 7 303 265 335 5 358 353
280 280 284 270 271 272 271 268 267 271 275 279 275 272 266 265 266 269 267 265 263 248 252 240 244 246 243 254 265 266 250 298 251 292 311 334 311 305 301 281 337 273 20 301 304 332 320 338 323 315 306 344 336 329
280 282 276 279 270 272 272 271 270 271 273 276 272 269 267 265 264 266 266 268 263 254 254 252 252 266 260 262 252 248 266 259 250 257 270 277 265 10 307 304 317 303 299 314 322 346 315 315 320 354 347 337 326 322
282 280 276 275 271 271 265 269 270 271 272 272 267 269 272 270 268 260 264 265 256 254 262 258 256 240 257 273 239 240 245 255 263 272 249 235 211 227 260 284 286 288 309 296 285 288 304 305 319 320 322 319 329 322
280 277 276 273 272 267 265 265 267 267 270 269 265 268 271 272 276 272 262 262 255 240 280 286 263 250 259 262 247 247 244 244 247 254 233 247 243 256 247 266 268 264 269 283 287 302 303 308 316 321 319 328 325 323
276 279 277 275 274 275 271 269 270 269 268 264 262 266 270 273 272 274 265 257 252 245 251 253 266 255 256 247 245 237 234 234 233 224 233 229 243 247 248 250 261 269 273 279 298 316 308 307 308 310 319 313 311 312
271 275 275 276 274 271 272 271 270 268 265 262 264 266 269 271 265 248 243 200 235 227 227 239 231 247 244 246 237 239 239 235 231 236 228 244 250 255 267 270 272 274 289 297 330 329 322 323 314 313 316 311 314 311
270 276 274 271 272 271 270 271 270 267 260 262 267 270 273 271 266 257 249 248 249 240 260 274 253 166 221 189 212 224 217 222 220 228 232 233 253 253 261 262 278 309 308 305 311 322 295 302 305 305 312 315 315 312
266 269 270 270 273 272 269 269 268 261 260 269 269 277 278 268 251 246 255 241 232 223 239 214 179 239 182 214 198 195 228 230 233 213 238 236 232 234 247 287 276 313 317 304 311 314 322 310 309 312 312 315 312 307
267 269 271 271 271 271 269 265 261 257 264 270 275 275 241 242 236 196 171 195 208 247 232 193 121 211 198 199 208 178 207 212 216 235 240 193 246 255 274 238 249 313 325 324 327 325 321 314 311 310 308 308 305 302
270 270 270 271 270 268 263 258 253 256 264 263 245 237 238 193 171 156 174 195 167 267 231 231 209 226 239 177 206 203 204 219 193 244 165 243 262 232 132 95 316 318 315 313 305 300 299 294 298 305 305 305 305 302
270 268 270 268 266 262 254 248 244 245 234 231 249 221 168 181 181 144 184 95 189 214 208 174 208 201 225 198 134 213 197 202 236 200 104 261 239 92 48 338 327 323 322 321 322 316 312 301 300 298 297 301 305 304
268 267 268 265 262 254 247 239 239 236 223 231 230 207 205 197 190 186 165 194 186 189 199 200 233 182 192 203 209 220 222 227 69 118 213 217 81 23 346 339 331 330 327 323 323 318 317 313 308 302 301 304 307 305
270 268 264 261 254 246 234 231 219 201 201 201 227 209 196 166 224 194 185 146 99 115 143 161 194 185 219 198 239 223 241 78 224 237 229 69 11 341 338 335 331 328 328 325 321 322 315 313 311 310 307 311 312 312
271 260 256 254 259 225 216 199 196 199 195 229 162 223 220 87 64 48 77 108 68 86 91 169 253 221 232 259 212 277 258 237 210 228 48 348 333 332 329 329 327 324 325 321 319 316 316 316 313 312 319 320 322 316
269 253 250 253 214 185 185 197 178 182 193 200 207 188 53 52 108 73 39 74 32 67 113 133 288 249 228 197 182 219 205 223 266 338 321 325 323 324 322 325 325 325 321 316 317 320 318 316 315 315 324 330 333 332
259 237 268 191 181 160 158 155 149 165 185 147 105 90 84 75 67 88 86 89 358 60 223 259 215 223 325 244 224 39 230 349 330 319 320 318 319 322 326 326 326 326 320 321 323 324 322 325 326 328 339 348 347 346
229 265 185 162 140 153 149 153 161 145 100 50 89 55 91 99 110 88 67 15 76 108 345 247 323 236 238 234 297 338 343 320 313 313 316 322 327 330 328 327 330 324 324 327 332 328 332 334 338 345 347 356 0 15
215 177 114 139 175 143 117 151 156 99 83 100 108 103 92 90 77 84 105 83 113 145 228 328 253 235 295 43 298 325 321 318 315 317 317 329 334 335 336 337 329 329 332 340 339 344 346 354 356 357 3 14 22 29
126 132 152 156 161 118 111 74 88 94 99 117 112 104 100 95 105 70 62 80 92 75 56 51 113 123 283 302 310 306 310 318 315 317 319 336 346 344 347 338 338 344 353 357 3 4 15 20 22 22 29 43 53 52
141 137 151 174 141 80 90 85 67 88 114 94 116 89 96 97 72 58 38 54 64 37 87 143 245 308 306 311 320 322 319 318 311 309 309 316 343 353 348 357 9 16 19 9 16 25 29 30 32 40 49 56 63 72
135 139 129 128 88 72 78 66 87 104 86 126 109 95 102 70 88 59 69 56 68 87 314 310 321 323 332 347 338 327 322 326 335 332 332 344 358 4 9 18 25 31 35 27 33 36 40 46 51 59 65 69 74 78
135 127 85 73 85 55 24 86 82 40 99 127 146 85 50 80 76 86 78 81 144 327 326 337 350 11 9 13 13 8 9 22 21 20 25 32 38 44 40 38 38 40 45 47 48 52 55 60 66 70 74 78 81 83
111 67 42 45 41 60 42 38 52 68 60 70 84 97 39 75 143 58 158 218 223 316 9 30 53 69 66 57 50 47 50 60 59 54 53 54 54 52 50 46 47 48 50 52 54 55 57 59 62 65 68 71 74 77
100 13 25 26 26 40 49 31 3 52 82 10 104 129 95 316 142 126 225 216 208 224 130 110 89 77 71 68 64 54 47 48 52 47 46 48 48 53 51 44 42 41 43 48 48 48 50 52 54 57 61 65 68 70
72 12 52 9 17 66 2 76 44 30 4 83 55 27 306 259 199 241 223 186 186 183 161 142 125 101 69 56 42 29 14 7 10 20 25 27 26 25 23 22 26 31 32 32 34 40 42 43 45 48 52 55 58 60
72 3 35 40 67 85 72 51 29 23 62 73 11 323 224 232 242 236 188 184 179 167 155 141 124 103 76 51 34 23 15 5 350 334 330 345 350 7 12 14 13 11 15 16 14 17 21 24 28 31 34 34 38 41
85 39 88 355 54 54 120 67 70 151 231 355 326 229 230 205 241 179 196 184 178 174 168 165 160 83 23 7 357 350 345 355 352 347 351 357 6 7 8 9 6 4 1 359 2 4 6 6 4 3 4 4 4 3
50 28 53 33 57 60 111 151 205 193 216 199 168 263 264 254 257 226 203 190 192 195 197 200 208 263 337 341 340 343 348 346 359 6 8 3 5 357 1 358 356 357 357 358 353 351 350 353 355 355 354 352 350 348
14 11 75 57 99 239 207 195 210 228 233 228 255 273 270 268 274 221 207 206 210 213 219 231 242 262 295 324 338 346 346 345 346 347 345 347 347 351 351 351 353 354 354 352 350 348 343 338 335 334 334 335 337 339
349 344 37 155 199 184 244 281 277 249 241 244 239 247 270 297 281 235 226 222 223 229 236 242 249 260 276 294 307 321 333 334 338 332 327 325 325 326 327 329 330 331 333 335 336 336 334 332 330 328 326 325 323 322
6 46 121 27 291 283 313 341 271 261 240 248 245 253 282 287 276 245 241 228 232 239 245 248 254 264 276 278 288 292 300 308 313 314 313 313 315 318 317 317 318 318 318 320 322 323 323 323 322 319 318 318 317 315
329 357 10 337 355 4 346 342 5 336 248 264 253 276 267 268 250 258 280 286 275 260 250 249 254 260 268 281 290 293 297 302 306 308 311 311 312 313 310 309 308 307 307 308 310 312 313 314 314 315 314 312 310 309